Location: Bullfrog
(37.5121°N, 110.7330°W)
Time: 03:48:31
(UTC-06:00)

N. Korean satellite - Pass Details

Date: 07 October 2021
Orbit: 450 x 495 km, 97.3° (Epoch: 15 October)

Event Time Altitude Azimuth Distance (km) Brightness Sun altitude
Rises 06:02:05 0° 24° (NNE) 2,567 10.7 -17.1°
Reaches altitude 10° 06:04:21 10° 36° (NE) 1,687 9.9 -16.6°
Maximum altitude 06:07:32 28° 97° (E) 945 8.8 -16.0°
Drops below altitude 10° 06:10:43 10° 158° (SSE) 1,684 9.5 -15.4°
Sets 06:12:58 0° 170° (S) 2,563 10.3 -14.9°
